Change the Weather History Date:

Wednesday, June 18, 2014

  Actual Average (KDUJ) Record (KDUJ)
Temperature  
Mean Temperature 72 °F 65 °F  
Max Temperature 82 °F 76 °F 87 °F (2007)
Min Temperature 63 °F 55 °F 42 °F (1986)
Degree Days  
Heating Degree Days 0 2  
Month to date heating degree days 67  
Since 1 June heating degree days 67  
Since 1 July heating degree days 6869  
Cooling Degree Days 8 3  
Month to date cooling degree days 31  
Year to date cooling degree days 54  
Since 1 June cooling degree days 31  
Growing Degree Days 22 (Base 50)    
Moisture  
Dew Point 65 °F    
Average Humidity 86    
Maximum Humidity 100    
Minimum Humidity 54    
Precipitation  
Precipitation 0.52 in 0.17 in 1.12 in (1997)
Month to date precipitation 2.90  
Sea Level Pressure  
Sea Level Pressure 30.04 in    
Wind  
Wind Speed 10 mph (WSW)    
Max Wind Speed 25 mph    
Max Gust Speed 36 mph    
Visibility 9 miles    
Events Rain , Thunderstorm    
T = Trace of Precipitation, MM = Missing Value Source: NWS Daily Summary

Daily Weather History Graph

Daily Weather History Graph

Search for Another Location

Airport or City:

Trip Planner

Search our weather history database for the weather conditions in past years. The results will help you decide how hot, cold, wet, or windy it might be!

Date:

Astronomy

Jun. 18, 2014 Rise Set
Actual Time 5:40 AM EDT 8:48 PM EDT
Civil Twilight 5:07 AM EDT 9:22 PM EDT
Nautical Twilight 4:24 AM EDT 10:05 PM EDT
Astronomical Twilight 3:33 AM EDT 10:56 PM EDT
Moon 12:13 AM EDT (6/18) 12:05 PM EDT (6/18)
Length of Visible Light 16h 15m
Length of Day
15h 07m
Waning Gibbous, 63% of the Moon is Illuminated
Jun 18
Waning Gibbous
Jun 19
Last Quarter
Jun 27
New
Jul 5
First Quarter
Jul 12
Full

Hourly Weather History & Observations

Time (EDT) Temp. Heat Index Dew Point Humidity Pressure Visibility Wind Dir Wind Speed Gust Speed Precip Events Conditions
12:03 AM 66.9 °F - 62.1 °F 84% 30.03 in 3.0 mi West 13.8 mph 28.8 mph 0.07 in Rain , Thunderstorm Heavy Thunderstorms and Rain
12:25 AM 66.0 °F - 64.0 °F 93% 30.02 in 10.0 mi SW 15.0 mph 21.9 mph 0.08 in Rain , Thunderstorm Light Rain
12:38 AM 66.0 °F - 64.0 °F 93% 30.03 in 10.0 mi South 9.2 mph - 0.08 in Rain , Thunderstorm Light Thunderstorms and Rain
12:54 AM 64.9 °F - 62.1 °F 90% 29.99 in 10.0 mi SSW 13.8 mph - 0.08 in Rain , Thunderstorm Light Rain
1:26 AM 64.0 °F - 62.1 °F 93% 30.03 in 10.0 mi SSW 12.7 mph - 0.00 in Rain , Thunderstorm Light Thunderstorms and Rain
1:43 AM 64.0 °F - 62.1 °F 93% 30.03 in 10.0 mi SW 9.2 mph - 0.00 in Rain Light Rain
1:54 AM 64.0 °F - 61.0 °F 90% 29.99 in 10.0 mi SW 12.7 mph - 0.00 in Rain , Thunderstorm Light Thunderstorms and Rain
2:08 AM 64.0 °F - 61.0 °F 90% 30.03 in 10.0 mi SSW 13.8 mph - 0.00 in Rain , Thunderstorm Light Rain
2:25 AM 63.0 °F - 61.0 °F 93% 30.02 in 10.0 mi SSW 12.7 mph - 0.00 in Rain Light Rain
2:54 AM 63.0 °F - 61.0 °F 93% 29.99 in 10.0 mi SW 10.4 mph - 0.00 in Rain Light Rain
3:54 AM 64.0 °F - 63.0 °F 96% 29.99 in 10.0 mi SSW 9.2 mph - 0.00 in   Overcast
4:54 AM 64.0 °F - 63.0 °F 96% 29.99 in 10.0 mi SSW 6.9 mph - N/A   Clear
5:54 AM 64.0 °F - 63.0 °F 96% 30.00 in 10.0 mi SSW 5.8 mph - N/A   Partly Cloudy
6:10 AM 64.9 °F - 64.0 °F 97% 30.03 in 6.0 mi SSW 8.1 mph - N/A   Mostly Cloudy
6:54 AM 66.9 °F - 64.9 °F 93% 29.99 in 10.0 mi SW 3.5 mph - N/A   Overcast
7:29 AM 69.1 °F - 66.0 °F 90% 30.04 in 10.0 mi Calm Calm - N/A   Mostly Cloudy
7:54 AM 69.1 °F - 66.0 °F 90% 30.02 in 10.0 mi SW 6.9 mph - N/A   Scattered Clouds
8:54 AM 71.1 °F - 68.0 °F 90% 30.02 in 10.0 mi West 6.9 mph - 0.02 in   Partly Cloudy
9:54 AM 75.0 °F - 68.0 °F 79% 30.04 in 10.0 mi West 11.5 mph - 0.00 in Rain Light Rain
10:14 AM 72.0 °F - 66.0 °F 81% 30.09 in 9.0 mi NW 25.3 mph 35.7 mph 0.01 in Rain , Thunderstorm Light Rain
10:29 AM 71.1 °F - 66.9 °F 87% 30.11 in 7.0 mi NW 12.7 mph 25.3 mph 0.03 in Rain Rain
10:40 AM 70.0 °F - 66.9 °F 90% 30.11 in 9.0 mi NNW 11.5 mph 23.0 mph 0.04 in Rain , Thunderstorm Light Rain
10:54 AM 69.1 °F - 64.9 °F 87% 30.09 in 9.0 mi NNW 16.1 mph 28.8 mph 0.06 in Rain Light Rain
11:54 AM 66.9 °F - 64.0 °F 90% 30.06 in 10.0 mi Calm Calm - 0.04 in   Mostly Cloudy
12:54 PM 72.0 °F - 66.0 °F 81% 30.04 in 10.0 mi SSW 4.6 mph - N/A   Clear
1:54 PM 77.0 °F - 69.1 °F 76% 30.04 in 10.0 mi WSW 6.9 mph - N/A   Clear
2:54 PM 80.1 °F 81.9 °F 64.9 °F 60% 30.04 in 10.0 mi WSW 6.9 mph - N/A   Clear
3:54 PM 82.0 °F 83.4 °F 64.0 °F 54% 30.02 in 10.0 mi West 10.4 mph - N/A   Clear
4:54 PM 82.0 °F 83.8 °F 64.9 °F 56% 30.01 in 10.0 mi West 9.2 mph - N/A   Clear
5:54 PM 82.0 °F 83.8 °F 64.9 °F 56% 30.01 in 10.0 mi West 8.1 mph - N/A   Clear
6:54 PM 81.0 °F 83.0 °F 66.0 °F 60% 30.01 in 10.0 mi WSW 6.9 mph - N/A   Clear
7:54 PM 78.1 °F - 66.9 °F 68% 30.00 in 10.0 mi West 3.5 mph - N/A   Clear
8:54 PM 75.0 °F - 69.1 °F 82% 30.01 in 10.0 mi Calm Calm - N/A Thunderstorm Mostly Cloudy
9:06 PM 73.0 °F - 70.0 °F 90% 30.03 in 10.0 mi NNW 4.6 mph - N/A Thunderstorm Thunderstorm
9:54 PM 70.0 °F - 64.0 °F 81% 30.03 in 10.0 mi West 8.1 mph - 0.00 in Rain , Thunderstorm Light Thunderstorms and Rain
10:16 PM 66.0 °F - 63.0 °F 90% 30.10 in 2.5 mi SW 9.2 mph 17.3 mph 0.15 in Rain , Thunderstorm Heavy Thunderstorms and Rain
10:25 PM 64.9 °F - 64.0 °F 97% 30.09 in 6.0 mi SSW 8.1 mph - 0.17 in Rain , Thunderstorm Light Thunderstorms and Rain
10:40 PM 66.0 °F - 64.0 °F 93% 30.08 in 10.0 mi Variable 4.6 mph - 0.17 in Rain , Thunderstorm Light Rain
10:54 PM 64.9 °F - 64.0 °F 97% 30.06 in 4.0 mi SW 4.6 mph - 0.21 in Rain Rain
11:12 PM 64.9 °F - 64.0 °F 97% 30.08 in 6.0 mi SW 6.9 mph - 0.05 in Rain , Thunderstorm Rain
11:19 PM 64.9 °F - 64.9 °F 100% 30.07 in 6.0 mi SSW 4.6 mph - 0.07 in Rain , Thunderstorm Thunderstorms and Rain
11:34 PM 64.9 °F - 64.0 °F 97% 30.06 in 10.0 mi SSW 4.6 mph - 0.09 in Rain Light Rain
11:54 PM 64.9 °F - 64.9 °F 100% 30.04 in 6.0 mi South 4.6 mph - 0.11 in Rain Light Rain